Change the Weather History Date:

Sunday, March 31, 2013

  Actual Average Record
Temperature  
Mean Temperature -20 °F -  
Max Temperature -15 °F -10 °F 8 °F (2005)
Min Temperature -26 °F -20 °F -32 °F (1997)
Degree Days  
Heating Degree Days 86    
Moisture  
Dew Point -29 °F    
Average Humidity 63    
Maximum Humidity 70    
Minimum Humidity 46    
Precipitation  
Precipitation 0.00 in - - ()
Sea Level Pressure  
Sea Level Pressure 30.19 in    
Wind  
Wind Speed 0 mph ()    
Max Wind Speed 10 mph    
Max Gust Speed -    
Visibility 15.0 miles    
Events      
Averages and records for this station are not official NWS values.
T = Trace of Precipitation, MM = Missing Value Source: Averaged Metar Reports

Daily Weather History Graph

Daily Weather History Graph

Search for Another Location

Airport or City:

Trip Planner

Search our weather history database for the weather conditions in past years. The results will help you decide how hot, cold, wet, or windy it might be!

Date:

Astronomy

Mar. 31, 2013 Rise Set
Actual Time 6:06 AM CDT 8:44 PM CDT
Civil Twilight 4:35 AM CDT 10:18 PM CDT
Nautical Twilight 1:56 AM CDT 12:51 AM CDT
Astronomical Twilight Sun does not rise Sun does not rise
Moon No Moon Rise No Moon Set
Length of Visible Light 17h 43m
Length of Day
14h 38m
Waning Gibbous, 77% of the Moon is Illuminated
Mar 31
Waning Gibbous
Apr 2
Last Quarter
Apr 10
New
Apr 18
First Quarter
Apr 25
Full

Hourly Weather History & Observations

Time (CDT) Temp. Windchill Dew Point Humidity Pressure Visibility Wind Dir Wind Speed Gust Speed Precip Events Conditions
12:00 AM -20.2 °F - -29.2 °F 63% 30.26 in 15.0 mi Calm Calm - N/A   Partly Cloudy
1:00 AM -20 °F - -29 °F 46% 30.25 in 15 mi Calm Calm - -   Clear
1:00 AM -20.2 °F - -29.2 °F 63% 30.25 in 15.0 mi Calm Calm - N/A   Partly Cloudy
2:00 AM -20.2 °F - -29.2 °F 63% 30.25 in 15.0 mi Calm Calm - N/A   Partly Cloudy
3:00 AM -22.0 °F - -31.0 °F 63% 30.24 in 15.0 mi Calm Calm - N/A   Partly Cloudy
4:00 AM -23.8 °F - -31.0 °F 69% 30.22 in 15.0 mi Calm Calm - N/A   Partly Cloudy
5:00 AM -22.0 °F - -29.2 °F 69% 30.22 in 15.0 mi Calm Calm - N/A   Mostly Cloudy
6:00 AM -22.0 °F - -31.0 °F 63% 30.22 in 15.0 mi Calm Calm - N/A   Mostly Cloudy
7:00 AM -24 °F - -32 °F 48% 30.21 in 15 mi Calm Calm - -   Mostly Cloudy
7:00 AM -23.8 °F - -32.8 °F 63% 30.21 in 15.0 mi Calm Calm - N/A   Mostly Cloudy
8:00 AM -22.0 °F - -31.0 °F 63% 30.19 in 15.0 mi Calm Calm - N/A   Mostly Cloudy
9:00 AM -22.0 °F - -29.2 °F 69% 30.19 in 15.0 mi Calm Calm - N/A   Mostly Cloudy
10:00 AM -22.0 °F - -29.2 °F 69% 30.18 in 15.0 mi Calm Calm - N/A   Scattered Clouds
11:00 AM -22.0 °F - -29.2 °F 69% 30.17 in 15.0 mi Calm Calm - N/A   Partly Cloudy
12:00 PM -20.2 °F - -27.4 °F 69% 30.17 in 15.0 mi Calm Calm - N/A   Partly Cloudy
1:00 PM -20 °F - -27 °F 56% 30.17 in 15 mi Calm Calm - -   Scattered Clouds
1:00 PM -18.4 °F - -27.4 °F 63% 30.17 in 15.0 mi Calm Calm - N/A   Partly Cloudy
2:00 PM -16.6 °F - -25.6 °F 64% 30.17 in 15.0 mi Calm Calm - N/A   Partly Cloudy
3:00 PM -14.8 °F - -23.8 °F 64% 30.16 in 15.0 mi Calm Calm - N/A   Partly Cloudy
5:00 PM -16.6 °F - -23.8 °F 70% 30.16 in 15.0 mi Calm Calm - N/A   Partly Cloudy
6:00 PM -16.6 °F - -25.6 °F 64% 30.16 in 15.0 mi Calm Calm - N/A   Partly Cloudy
7:00 PM -19 °F - -27 °F 49% 30.16 in 15 mi Calm Calm - -   Clear
7:00 PM -18.4 °F - -27.4 °F 63% 30.16 in 15.0 mi Calm Calm - N/A   Partly Cloudy
8:00 PM -18.4 °F - -25.6 °F 70% 30.16 in 15.0 mi Calm Calm - N/A   Partly Cloudy
9:00 PM -20.2 °F - -29.2 °F 63% 30.16 in 15.0 mi Calm Calm - N/A   Partly Cloudy
10:00 PM -20.2 °F -41.3 °F -29.2 °F 63% 30.14 in 15.0 mi NW 10.4 mph - N/A   Scattered Clouds
11:00 PM -23.8 °F -41.6 °F -32.8 °F 63% 30.14 in 15.0 mi NW 6.9 mph - N/A   Partly Cloudy